Location: Friedrichshafen
(47.6598°N, 9.4819°E)
Time: 03:50:37
(UTC+01:00)

ISS - Pass Details

Date: 11 November 2017
Orbit: 402 x 407 km, 51.6° (Epoch: 21 November)

Event Time Altitude Azimuth Distance (km) Brightness Sun altitude
Exits shadow 05:09:52 36° 35° (NE) 660 -2.6 -22.2°
Drops below altitude 10° 05:12:22 10° 78° (ENE) 1,457 0.0 -21.8°
Sets 05:14:31 0° 86° (E) 2,315 1.5 -21.4°
